Regional Weather Roundup
Issued by NWS Newport/Morehead, NC

Current Version | Previous Version | Text Only | Print | Product List | Glossary On
Versions: 1 2 3 4 5 6 7 8 9 10 11 12 13 14 15 16 17 18 19 20 21 22 23 24 25 26 27 28 29 30 31 32 33 34 35 36 37 38 39 40 41 42 43 44 45 46 47 48 49 50
945
ASUS42 KMHX 231913
RWRMHX
WEATHER ROUNDUP FOR EASTERN NORTH CAROLINA
NATIONAL WEATHER SERVICE NEWPORT/MOREHEAD CITY NC
300 PM EDT MON OCT 23 2017

NOTE: "FAIR" INDICATES FEW OR NO CLOUDS BELOW 12,000 FEET
WITH NO SIGNIFICANT WEATHER AND/OR OBSTRUCTIONS TO VISIBILITY

NCZ015>017-031-032-045>047-102-103-232000-
NORTH COAST

CITY           SKY/WX    TMP DP  RH WIND       PRES   REMARKS
EDENTON        CLOUDY    80  68  66 SE12      30.06F
ELIZABETH CITY CLOUDY    78  68  71 SE10      30.07F
KITTY HAWK     MOCLDY    75  67  76 SE9G16    30.07F
MANTEO         CLOUDY   N/A N/A N/A S12G20    30.09F

$$

NCZ045>047-081-094-103-104-232000-
CENTRAL COAST

CITY           SKY/WX    TMP DP  RH WIND       PRES   REMARKS
FRISCO         MOSUNNY   80  66  62 S18G25    30.09F

$$

NCZ095-097-098-100-101-232000-
SOUTHERN COAST

CITY           SKY/WX    TMP DP  RH WIND       PRES   REMARKS
BEAUFORT       CLOUDY    78  68  71 S10       30.06F
CEDAR ISLAND   NOT AVBL
JACKSONVILLE   CLOUDY    78  67  68 S13       30.03F
PINEY ISLAND     N/A    N/A N/A N/A S13G21    30.06F
WILMINGTON     PTSUNNY   78  66  66 SE9       30.02F


$$

NCZ011>013-027>030-043-044-078>080-089-090>093-098-232000-
COASTAL PLAIN

CITY           SKY/WX    TMP DP  RH WIND       PRES   REMARKS
AHOSKIE        MOSUNNY   77  63  62 S14       30.04F
CLINTON        PTSUNNY   78  64  61 SE5       30.01F
ELIZABETHTOWN  NOT AVBL
GOLDSBORO      CLOUDY    80  63  56 SE14G24   30.00F
GREENVILLE     PTSUNNY   81  63  54 S15G25    30.06F
HAVELOCK       CLOUDY    79  66  64 S13       30.06F
KENANSVILLE    CLOUDY    79  63  57 S13G21    30.03F
KINSTON        MOSUNNY   79  61  53 SE14G26   30.03F
NEW BERN       CLOUDY    79  65  62 S14       30.06F
RICHLANDS      CLOUDY    78  64  61 S12       30.04F
ROCKY MOUNT    PTSUNNY   79  59  50 S9G20     30.01F
WASHINGTON     CLOUDY    79  65  62 S8G18     30.05F
WHITEVILLE     CLOUDY    78  66  65 SE12G17   29.99F

$$

AMZ130-135-150-152-154-156-158-170-250-252-270-ANZ085-086-088-633-658-670-232000-
MARINE OBSERVATIONS

STATION/POSITION TIME  TEMP    WIND        PRES    WAVE   SWELL
                       AIR SEA DIR/SP/G            HT/PER HT/PER
                 (UTC) (F)     (DEG/KT/KT) (MB)    (FT/S) (FT/S)
CHESAPEAKE LIGHT NOT AVBL
64 E VA BEACH    1850   74 70  150/ 16/ 17 1019.8    4/ 6   2/ 9
DUCK             1848   73 70  140/ 13/ 15 1018.1
2 E DUCK         1900      71                N/A     3/ 5
OREGON INLET     1842   76 72  130/ 10/ 16 1018.7
13E OREGON INLT  1848      72                N/A     4/ 5   3/ 6
HATTERAS CG      1848   78 73  160/ 15/ 21 1018.7
DIAMOND BUOY     1850   78 80  170/ 19/ 23 1018.4    5/ 5   2/ 8
CAPE LOOKOUT     1900   76     150/ 12/ 13 1017.5
BEAUFORT LAB     1848   76 73  170/  6/ 11 1017.9
30 SE NEW RVR IN 1808   78     160/ 16/ 21 1017.8
30 SE NEW RVR IN NOT AVBL
27 SE WRIGHTSVLE 1808   77 76  160/ 12/ 17 1017.6
5 SE WRIGHTSVLE  1808   76 74  170/ 10/ 16 1017.3
225 S CAPE HAT   1850   78 80  130/ 16/ 17 1019.0    5/ 8   2/ 8
41 SE CHARLESTON 1900   80 80  150/ 21/ 27 1014.2

$$




USA.gov is the U.S. government's official web portal to all federal, state and local government web resources and services.